Sigfox identifier Datetime Temperature Humidity SNR
003C6025 2019-02-20 14:11:30 20.9 23 24.4
003C6025 2019-02-20 13:40:47 20.9 23 24.5
003C6025 2019-02-20 13:10:07 20.9 24 24.5
003C6025 2019-02-20 12:39:26 20.9 24 23.9
003C6025 2019-02-20 12:08:46 20.8 25 24.5
003C6025 2019-02-20 11:07:26 20.8 26 23.9
003C6025 2019-02-20 10:36:47 20.8 27 24.5
003C6025 2019-02-20 10:06:07 20.7 27 24
003C6025 2019-02-20 09:35:28 20.7 27 23.9
003C6025 2019-02-20 09:04:49 20.7 27 23.2
003C6025 2019-02-20 08:34:09 20.7 27 22.3
003C6025 2019-02-20 08:03:30 20.7 27 22.4
003C6025 2019-02-20 07:32:52 20.7 27 22.3
003C6025 2019-02-20 07:02:11 20.7 27 22.3
003C6025 2019-02-20 06:31:32 20.7 27 22.5
003C6025 2019-02-20 06:00:53 20.7 27 22.4
003C6025 2019-02-20 05:30:13 20.7 27 22.5
003C6025 2019-02-20 04:28:52 20.8 27 22.3
003C6025 2019-02-20 03:58:13 20.7 27 22.2
003C6025 2019-02-20 03:27:33 20.8 27 22.1
003C6025 2019-02-20 02:56:55 20.8 27 22
003C6025 2019-02-20 02:26:13 20.8 27 22.1
003C6025 2019-02-20 01:55:35 20.8 27 22.1
003C6025 2019-02-20 01:24:53 20.8 27 21.9
003C6025 2019-02-20 00:54:12 21 27 21.7
003C6025 2019-02-20 00:53:00 20.8 27 21.7
003C6025 2019-02-20 00:22:20 20.8 27 21.6
003C6025 2019-02-19 23:51:39 20.8 27 21.4
003C6025 2019-02-19 23:20:57 20.8 27 20
003C6025 2019-02-19 22:50:17 20.8 27 19.9
003C6025 2019-02-19 22:19:36 20.8 27 17.7
003C6025 2019-02-19 21:48:59 20.8 27 17.2
003C6025 2019-02-19 21:18:18 20.9 27 17.1
003C6025 2019-02-19 20:47:38 20.9 27 17.3
003C6025 2019-02-19 20:16:59 20.9 27 17.6
003C6025 2019-02-19 19:46:19 20.9 27 17.2
003C6025 2019-02-19 19:15:40 20.9 27 17.4
003C6025 2019-02-19 18:45:00 21 27 17.5
003C6025 2019-02-19 18:14:20 21 27 16.9
003C6025 2019-02-19 17:43:46 21.1 27 16.6
003C6025 2019-02-19 17:13:01 21.1 27 16.9
003C6025 2019-02-19 16:42:21 21.1 27 17
003C6025 2019-02-19 16:11:42 21.1 27 17.5
003C6025 2019-02-19 15:41:02 21 27 17.8
003C6025 2019-02-19 15:10:18 21.1 27 17.7
003C6025 2019-02-19 14:39:38 21 27 17.8
003C6025 2019-02-19 14:09:01 21 27 17.9
003C6025 2019-02-19 13:38:18 21 27 18
003C6025 2019-02-19 13:07:36 21 27 18
003C6025 2019-02-19 12:36:54 21 27 18.4
003C6025 2019-02-19 12:06:13 21 27 18.4
003C6025 2019-02-19 11:35:33 21 27 18.2
003C6025 2019-02-19 11:04:53 20.9 27 18.8
003C6025 2019-02-19 10:34:13 20.9 26 18.9
003C6025 2019-02-19 10:03:32 20.8 26 19
003C6025 2019-02-19 09:32:56 20.8 26 19.1
003C6025 2019-02-19 09:02:10 20.8 25 19.2
003C6025 2019-02-19 08:31:29 20.7 25 18.9
003C6025 2019-02-19 08:00:48 20.7 25 18.7
003C6025 2019-02-19 07:30:08 20.7 25 18.9
003C6025 2019-02-19 06:59:27 20.7 25 18.7
003C6025 2019-02-19 06:28:47 20.8 25 18.4
003C6025 2019-02-19 05:58:06 20.7 24 18.3
003C6025 2019-02-19 05:27:26 20.8 24 18.5
003C6025 2019-02-19 04:56:44 20.8 24 18.1
003C6025 2019-02-19 04:26:03 20.7 24 18.1
003C6025 2019-02-19 03:55:21 20.8 24 17.7
003C6025 2019-02-19 03:24:41 20.7 24 19.7
003C6025 2019-02-19 02:54:02 20.7 24 19.8
003C6025 2019-02-19 02:23:22 20.8 24 19.7
003C6025 2019-02-19 01:52:40 20.8 24 19.6
003C6025 2019-02-19 01:22:00 20.8 23 19.5
003C6025 2019-02-19 00:51:19 20.8 23 19.6
003C6025 2019-02-19 00:20:38 20.8 23 19.7
003C6025 2019-02-18 23:49:57 21 23 19.9
003C6025 2019-02-18 23:48:46 20.8 23 21.4
003C6025 2019-02-18 23:18:05 20.8 23 21.6
003C6025 2019-02-18 22:47:24 20.8 23 21.5
003C6025 2019-02-18 22:16:45 20.8 23 21.8
003C6025 2019-02-18 21:46:01 20.8 23 22
003C6025 2019-02-18 21:15:19 20.8 22 22.2
003C6025 2019-02-18 20:44:37 20.8 22 22.4
003C6025 2019-02-18 20:13:56 20.8 22 22.8
003C6025 2019-02-18 19:43:16 20.9 22 23
003C6025 2019-02-18 19:12:35 20.9 22 23
003C6025 2019-02-18 18:41:56 20.9 22 23.1
003C6025 2019-02-18 18:11:15 20.9 22 23.4
003C6025 2019-02-18 17:40:34 20.9 21 23.7
003C6025 2019-02-18 17:09:54 21 21 23.7
003C6025 2019-02-18 16:39:14 21 21 23.9
003C6025 2019-02-18 16:08:31 21 21 24
003C6025 2019-02-18 15:37:55 21.1 21 24.1
003C6025 2019-02-18 15:07:11 21.2 21 23.6
003C6025 2019-02-18 14:36:32 21.2 21 23.7
003C6025 2019-02-18 14:05:52 21.2 20 23.9
003C6025 2019-02-18 13:35:08 21.3 20 24.1
003C6025 2019-02-18 13:04:27 21.4 20 24.3
003C6025 2019-02-18 12:33:45 21.5 20 24.4
003C6025 2019-02-18 12:03:04 21.5 20 24.5
003C6025 2019-02-18 11:32:23 21.4 19 24.6
003C6025 2019-02-18 11:01:42 21.3 19 24.1
003C6025 2019-02-18 10:31:02 21.3 19 24.1
003C6025 2019-02-18 10:00:21 21.2 19 24.3
003C6025 2019-02-18 09:29:40 21.1 19 24.2
003C6025 2019-02-18 08:59:02 21.1 19 24.2
003C6025 2019-02-18 08:28:23 21 19 24.3
003C6025 2019-02-18 07:57:44 21 19 24.2
003C6025 2019-02-18 07:27:05 20.9 18 24.1
003C6025 2019-02-18 06:56:25 20.9 18 24.2
003C6025 2019-02-18 06:25:45 20.8 18 24.2
003C6025 2019-02-18 05:55:06 20.9 18 24.3
003C6025 2019-02-18 05:24:26 20.9 18 24.2
003C6025 2019-02-18 04:53:45 20.9 19 24.6
003C6025 2019-02-18 04:23:04 20.9 19 24.7
003C6025 2019-02-18 03:52:23 20.9 19 24.7
003C6025 2019-02-18 03:21:42 20.9 19 24.7
003C6025 2019-02-18 02:51:02 20.9 19 24.9
003C6025 2019-02-18 02:20:21 20.9 19 24.9
003C6025 2019-02-18 01:49:39 20.9 19 24.9
003C6025 2019-02-18 01:18:58 21 19 24.9
003C6025 2019-02-18 00:48:18 21 19 24.9
003C6025 2019-02-18 00:17:37 21 19 24.9
003C6025 2019-02-17 23:46:58 21 19 24.9
003C6025 2019-02-17 23:16:19 21 19 24.9
003C6025 2019-02-17 22:45:38 21.2 19 24.8
003C6025 2019-02-17 22:44:26 21 19 24.8
003C6025 2019-02-17 22:13:45 21 19 24.8
003C6025 2019-02-17 21:43:03 21 20 24.8
003C6025 2019-02-17 21:12:20 21 20 24.7
003C6025 2019-02-17 20:41:37 21 20 25.2
003C6025 2019-02-17 20:10:56 21 20 25.2
003C6025 2019-02-17 19:40:14 21.1 20 25.3
003C6025 2019-02-17 19:09:32 21.1 20 25.3
003C6025 2019-02-17 18:38:49 21.1 20 25.3
003C6025 2019-02-17 18:08:07 21.1 20 25.3
003C6025 2019-02-17 17:37:24 21.1 20 25.4
003C6025 2019-02-17 17:06:42 21.1 20 25.4
003C6025 2019-02-17 16:36:01 21.1 20 25
003C6025 2019-02-17 16:05:19 21.1 20 25
003C6025 2019-02-17 15:34:36 21.1 20 25
003C6025 2019-02-17 15:03:54 21.1 21 25.1
003C6025 2019-02-17 14:33:12 21.2 21 25
003C6025 2019-02-17 14:02:31 21.2 21 24.9
003C6025 2019-02-17 13:31:51 21.2 21 25
003C6025 2019-02-17 13:01:09 21.1 21 25
003C6025 2019-02-17 12:30:24 21.1 21 25
003C6025 2019-02-17 11:59:40 21.1 21 25.1
003C6025 2019-02-17 11:29:00 21 21 25.1
003C6025 2019-02-17 10:58:20 21.1 21 25.3
003C6025 2019-02-17 10:27:36 21 21 25.4
003C6025 2019-02-17 09:56:55 21 21 25.3
003C6025 2019-02-17 09:26:12 21 21 25.4
003C6025 2019-02-17 08:55:32 21 21 25.4
003C6025 2019-02-17 08:24:50 21 21 25.4
003C6025 2019-02-17 07:54:09 21.1 21 25
003C6025 2019-02-17 07:23:28 21 22 25
003C6025 2019-02-17 06:52:45 21 22 25.1
003C6025 2019-02-17 06:22:05 21.1 22 25
003C6025 2019-02-17 05:51:25 21.1 22 25
003C6025 2019-02-17 05:20:43 21.1 22 25.1
003C6025 2019-02-17 04:50:02 21.1 22 24.9
003C6025 2019-02-17 04:19:22 21.1 23 25
003C6025 2019-02-17 03:48:41 21.1 23 25
003C6025 2019-02-17 03:17:59 21.1 23 25
003C6025 2019-02-17 02:47:17 21.1 23 25.1
003C6025 2019-02-17 02:16:35 21.1 24 25
003C6025 2019-02-17 01:45:54 21.1 24 24.9
003C6025 2019-02-17 01:15:13 21.1 24 25
003C6025 2019-02-17 00:44:30 21.1 24 25
003C6025 2019-02-17 00:13:50 21.1 24 25.1
003C6025 2019-02-16 23:43:08 21.1 24 25
003C6025 2019-02-16 23:12:26 21.1 24 25
003C6025 2019-02-16 22:41:45 21.1 24 25
003C6025 2019-02-16 22:11:02 21.2 25 24.9
003C6025 2019-02-16 21:40:21 21.4 24 25
003C6025 2019-02-16 21:39:10 21.2 25 25.1
003C6025 2019-02-16 21:08:29 21.2 25 25
003C6025 2019-02-16 20:37:47 21.2 25 25
003C6025 2019-02-16 20:07:05 21.2 25 25.1
003C6025 2019-02-16 19:36:24 21.2 25 25.2
003C6025 2019-02-16 19:05:43 21.2 25 25
003C6025 2019-02-16 18:35:01 21.2 25 25.4
003C6025 2019-02-16 18:04:21 21.3 25 25.4
003C6025 2019-02-16 17:33:41 21.4 25 25.3
003C6025 2019-02-16 17:02:59 21.4 25 25.3
003C6025 2019-02-16 16:32:16 21.4 25 25.3
003C6025 2019-02-16 16:01:35 21.4 25 25.3
003C6025 2019-02-16 15:30:53 21.4 25 25.3
003C6025 2019-02-16 15:00:12 21.4 25 25.3
003C6025 2019-02-16 14:29:32 21.3 25 25.2
003C6025 2019-02-16 13:58:51 21.3 25 25.2
003C6025 2019-02-16 13:28:09 21.3 25 25.3
003C6025 2019-02-16 12:57:27 21.3 25 25.3
003C6025 2019-02-16 12:26:45 21.2 25 25.3
003C6025 2019-02-16 11:56:04 21.2 25 25.2
003C6025 2019-02-16 11:25:24 21.1 25 25.3
003C6025 2019-02-16 10:54:42 21.1 25 25.4
003C6025 2019-02-16 10:24:01 21.1 25 25.3
003C6025 2019-02-16 09:53:21 21.1 25 25.3
003C6025 2019-02-16 09:22:40 21.1 25 25.1
003C6025 2019-02-16 08:52:00 21.1 25 25.1
003C6025 2019-02-16 08:21:18 21.1 25 25.1
003C6025 2019-02-16 07:50:38 21.1 25 25.2
003C6025 2019-02-16 07:19:56 21.1 25 25.2
003C6025 2019-02-16 06:49:16 21.1 25 25.1
003C6025 2019-02-16 06:18:34 21.1 26 25.2
003C6025 2019-02-16 05:47:53 21.1 26 24.8
003C6025 2019-02-16 05:17:13 21.1 25 24.9
003C6025 2019-02-16 04:46:32 21.1 25 24.9
003C6025 2019-02-16 04:15:51 21.1 25 25.3
003C6025 2019-02-16 03:45:11 21.1 25 25.5
003C6025 2019-02-16 03:14:29 21.1 25 25.5
003C6025 2019-02-16 02:43:47 21.2 25 25.4
003C6025 2019-02-16 02:13:05 21.2 25 25.4
003C6025 2019-02-16 01:42:23 21.2 25 25.5
003C6025 2019-02-16 01:11:41 21.2 25 25.5
003C6025 2019-02-16 00:40:59 21.2 25 25.5
003C6025 2019-02-16 00:10:17 21.3 25 25.4
003C6025 2019-02-15 23:39:36 21.3 25 25.5
003C6025 2019-02-15 23:08:54 21.4 25 25.4
003C6025 2019-02-15 22:38:14 21.4 25 25.3
003C6025 2019-02-15 22:07:33 21.4 25 25.1
003C6025 2019-02-15 21:36:52 21.5 25 25.1
003C6025 2019-02-15 21:06:08 21.5 25 25
003C6025 2019-02-15 20:35:26 21.8 25 25.1
003C6025 2019-02-15 20:34:14 21.6 25 25.1
003C6025 2019-02-15 20:03:30 21.6 25 25
003C6025 2019-02-15 19:32:47 21.7 25 24.9
003C6025 2019-02-15 19:02:06 21.8 25 25
003C6025 2019-02-15 18:31:25 21.8 25 25
003C6025 2019-02-15 18:00:43 21.8 25 25.1
003C6025 2019-02-15 17:29:59 21.8 25 25
003C6025 2019-02-15 16:59:16 21.8 25 25
003C6025 2019-02-15 16:28:33 21.8 24 25.1
003C6025 2019-02-15 15:57:49 21.8 24 24.6
003C6025 2019-02-15 15:27:05 21.8 24 24.5
003C6025 2019-02-15 14:56:22 21.7 24 24.4
003C6025 2019-02-15 14:25:41 21.7 24 24.5
003C6025 2019-02-15 13:55:00 21.7 24 24.5
003C6025 2019-02-15 13:24:20 21.7 24 24.3
003C6025 2019-02-15 12:53:39 21.6 24 24.3
003C6025 2019-02-15 12:22:58 21.6 24 24.2
003C6025 2019-02-15 11:52:16 21.6 24 24.3
003C6025 2019-02-15 11:21:35 21.5 24 24.2
003C6025 2019-02-15 10:50:53 21.5 25 24.3
003C6025 2019-02-15 10:20:12 21.5 25 24.4
003C6025 2019-02-15 09:49:29 21.5 25 24.5
003C6025 2019-02-15 09:18:47 21.4 25 24.6
003C6025 2019-02-15 08:48:04 21.3 25 24.8
003C6025 2019-02-15 08:17:22 21.3 25 24.7
003C6025 2019-02-15 07:46:39 21.3 25 24.7
003C6025 2019-02-15 07:15:57 21.3 25 25
003C6025 2019-02-15 06:45:15 21.3 25 25
003C6025 2019-02-15 06:14:34 21.3 25 25
003C6025 2019-02-15 05:43:52 21.3 25 25.1
003C6025 2019-02-15 05:13:08 21.3 25 25
003C6025 2019-02-15 04:42:24 21.3 26 25.1
003C6025 2019-02-15 04:11:43 21.3 26 25
003C6025 2019-02-15 03:41:00 21.3 26 24.8
003C6025 2019-02-15 03:10:18 21.3 26 24.7
003C6025 2019-02-15 02:39:35 21.4 26 24.5
003C6025 2019-02-15 02:08:52 21.4 26 24.4
003C6025 2019-02-15 01:38:09 21.4 26 24.2
003C6025 2019-02-15 01:07:26 21.4 26 24.1
003C6025 2019-02-15 00:36:45 21.4 25 24
003C6025 2019-02-15 00:06:01 21.4 26 23.8
003C6025 2019-02-14 23:35:18 21.4 25 23.8
003C6025 2019-02-14 23:04:35 21.4 25 23.7
003C6025 2019-02-14 22:33:50 21.5 25 23.5
003C6025 2019-02-14 22:03:08 21.5 25 23.4
003C6025 2019-02-14 21:32:25 21.6 25 23.2
003C6025 2019-02-14 21:01:44 21.6 24 22.9
003C6025 2019-02-14 20:31:03 21.7 24 22.7
003C6025 2019-02-14 20:00:20 21.7 24 22.6
003C6025 2019-02-14 19:29:36 22.1 24 22.4
003C6025 2019-02-14 19:28:25 21.8 24 22.3
003C6025 2019-02-14 18:57:40 21.9 24 21.9
003C6025 2019-02-14 18:26:57 21.9 24 21.5
003C6025 2019-02-14 17:56:15 21.9 24 21.1
003C6025 2019-02-14 17:25:34 21.9 24 20.4
003C6025 2019-02-14 16:54:53 22 24 19.9
003C6025 2019-02-14 16:24:14 21.9 25 19.5
003C6025 2019-02-14 15:53:34 21.9 24 19.7
003C6025 2019-02-14 15:22:54 21.8 24 19.9
003C6025 2019-02-14 14:52:13 21.7 24 19.8
003C6025 2019-02-14 14:21:30 21.6 24 20
003C6025 2019-02-14 13:50:52 21.5 24 20.2
003C6025 2019-02-14 13:20:05 21.4 24 20.4
003C6025 2019-02-14 12:49:23 21.3 24 20.3
003C6025 2019-02-14 12:18:41 21.2 24 20.3
003C6025 2019-02-14 11:47:59 21.2 24 20.4
003C6025 2019-02-14 11:17:16 21.1 25 20
003C6025 2019-02-14 10:46:34 21 24 20
003C6025 2019-02-14 10:15:49 20.9 24 20
003C6025 2019-02-14 09:45:07 20.8 24 19.9
003C6025 2019-02-14 09:14:26 20.8 24 20.1
003C6025 2019-02-14 08:43:43 20.8 24 20.2
003C6025 2019-02-14 08:13:01 20.8 25 20.1
003C6025 2019-02-14 07:42:18 20.8 25 19.8
003C6025 2019-02-14 07:11:37 20.8 25 19.7
003C6025 2019-02-14 06:40:56 20.8 25 19.4
003C6025 2019-02-14 06:10:15 20.9 25 19
003C6025 2019-02-14 05:39:34 20.8 25 19.1
003C6025 2019-02-14 05:08:51 20.9 25 19.1
003C6025 2019-02-14 04:38:09 20.9 25 19
003C6025 2019-02-14 04:07:27 20.9 25 19.3
003C6025 2019-02-14 03:36:46 20.8 25 19.2
003C6025 2019-02-14 03:06:05 20.8 25 18.9
003C6025 2019-02-14 02:35:24 20.8 25 18.9
003C6025 2019-02-14 02:04:42 20.9 25 19
003C6025 2019-02-14 01:34:00 20.9 25 18.8
003C6025 2019-02-14 01:03:18 20.9 25 18.5
003C6025 2019-02-14 00:32:37 20.9 25 18.3
003C6025 2019-02-14 00:01:56 20.9 25 18.2
003C6025 2019-02-13 23:31:16 21 25 18.1
003C6025 2019-02-13 23:00:36 21 25 18
003C6025 2019-02-13 22:29:55 21 25 18
003C6025 2019-02-13 21:59:14 21.1 25 17.9
003C6025 2019-02-13 21:28:33 21.1 25 17.5
003C6025 2019-02-13 20:57:51 21.2 25 17.3
003C6025 2019-02-13 20:27:09 21.2 25 17
003C6025 2019-02-13 19:56:29 21.3 25 16.6
003C6025 2019-02-13 19:25:48 21.3 25 16.5
003C6025 2019-02-13 18:55:09 21.4 25 19.2
003C6025 2019-02-13 18:24:27 21.6 25 20.7
003C6025 2019-02-13 18:23:15 21.4 26 20.8
003C6025 2019-02-13 17:52:33 21.4 26 20.8
003C6025 2019-02-13 17:21:49 21.4 26 20.9
003C6025 2019-02-13 16:51:06 21.3 26 20.9
003C6025 2019-02-13 16:20:22 21.2 25 20.9
003C6025 2019-02-13 15:49:40 21.2 25 20.6
003C6025 2019-02-13 15:18:58 21.2 25 20.7
003C6025 2019-02-13 14:48:16 21.1 24 20.7
003C6025 2019-02-13 14:17:34 21.1 24 20.6
003C6025 2019-02-13 13:46:51 21.1 24 21.8
003C6025 2019-02-13 12:45:26 21.1 24 22.8
003C6025 2019-02-13 12:14:45 21.1 24 22.8
003C6025 2019-02-13 11:44:05 21 24 22.8
003C6025 2019-02-13 11:13:27 20.9 24 22.8
003C6025 2019-02-13 10:42:42 20.9 23 22.8
003C6025 2019-02-13 10:11:59 20.8 22 22.8
003C6025 2019-02-13 09:41:18 20.8 22 22.9
003C6025 2019-02-13 09:10:38 20.8 22 22.9
003C6025 2019-02-13 08:39:56 20.8 21 22.9
003C6025 2019-02-13 08:09:19 20.8 20 23
003C6025 2019-02-13 07:38:33 20.7 20 23
003C6025 2019-02-13 07:07:51 20.8 20 23.1
003C6025 2019-02-13 06:37:08 20.8 20 23
003C6025 2019-02-13 06:06:25 20.8 20 22.1
003C6025 2019-02-13 05:35:43 20.8 20 20.9
003C6025 2019-02-13 05:04:59 20.8 20 20.9
003C6025 2019-02-13 04:34:16 20.8 20 20.8
003C6025 2019-02-13 04:03:35 20.8 20 20.7
003C6025 2019-02-13 03:02:11 20.8 20 20.6
003C6025 2019-02-13 02:31:31 20.8 20 20.7
003C6025 2019-02-13 02:00:49 20.9 20 20.7
003C6025 2019-02-13 01:30:05 20.9 20 20.6
003C6025 2019-02-13 00:59:21 20.9 20 20.6
003C6025 2019-02-13 00:28:38 20.9 20 20.6
003C6025 2019-02-12 23:57:55 20.9 20 18.7
003C6025 2019-02-12 23:27:13 21 20 15.5
003C6025 2019-02-12 22:56:30 21 20 15.5
003C6025 2019-02-12 22:25:48 21.1 20 15.6
003C6025 2019-02-12 21:55:05 21.2 21 16.3
003C6025 2019-02-12 21:24:24 21.3 21 16.3
003C6025 2019-02-12 20:53:40 21.4 21 16.2
003C6025 2019-02-12 20:22:58 21.4 21 15.9
003C6025 2019-02-12 19:52:15 21.5 21 15.9
003C6025 2019-02-12 19:21:35 21.6 21 15.9
003C6025 2019-02-12 18:50:51 21.6 20 15.8
003C6025 2019-02-12 18:20:09 21.7 20 15.6
003C6025 2019-02-12 17:49:27 21.8 20 15.1
003C6025 2019-02-12 17:18:45 22.1 20 15.1
003C6025 2019-02-12 17:17:33 21.9 20 15.2
003C6025 2019-02-12 16:46:52 22 20 15.5
003C6025 2019-02-12 16:16:10 22.1 20 15.5
003C6025 2019-02-12 15:45:30 22.1 20 15.8
003C6025 2019-02-12 15:14:48 22.1 21 15.8
003C6025 2019-02-12 14:44:06 21.9 21 15.9
003C6025 2019-02-12 14:13:25 21.5 21 15.8
003C6025 2019-02-12 13:42:42 21.3 22 18.9
003C6025 2019-02-12 13:12:00 21.3 22 19
003C6025 2019-02-12 12:41:19 21.3 22 18.9
003C6025 2019-02-12 12:10:35 21.2 22 18.9
003C6025 2019-02-12 11:39:53 21.2 22 19
003C6025 2019-02-12 11:09:11 21.2 23 18.9
003C6025 2019-02-12 10:38:28 21.1 23 19
003C6025 2019-02-12 10:07:45 21 24 19
003C6025 2019-02-12 09:37:05 20.9 24 18.6
003C6025 2019-02-12 09:06:19 20.9 24 18.6
003C6025 2019-02-12 08:35:35 20.8 25 18.6
003C6025 2019-02-12 08:04:52 20.8 25 18.5
003C6025 2019-02-12 07:34:09 20.9 26 18.7
003C6025 2019-02-12 07:03:27 20.9 26 18.6
003C6025 2019-02-12 06:32:43 20.9 26 18.7
003C6025 2019-02-12 06:02:01 20.9 27 18.7
003C6025 2019-02-12 05:31:18 20.9 27 18.7
003C6025 2019-02-12 05:00:35 20.9 27 18.8
003C6025 2019-02-12 04:29:49 20.9 27 18.9
003C6025 2019-02-12 03:59:04 20.9 27 18.8
003C6025 2019-02-12 03:28:19 20.9 27 19
003C6025 2019-02-12 02:57:36 20.9 27 18.9
003C6025 2019-02-12 02:26:56 21 27 19.1
003C6025 2019-02-12 01:56:07 21 27 19.3
003C6025 2019-02-12 01:25:22 21 27 19.5
003C6025 2019-02-12 00:54:38 21 27 15.4
003C6025 2019-02-12 00:23:54 21 27 15.4
003C6025 2019-02-11 23:53:09 21.1 27 15.5
003C6025 2019-02-11 23:22:26 21.1 27 15.5
003C6025 2019-02-11 22:51:44 21.2 27 15.6
003C6025 2019-02-11 22:21:00 21.2 27 15.7
003C6025 2019-02-11 21:50:17 21.3 27 15.7
003C6025 2019-02-11 21:19:33 21.4 27 15.8
003C6025 2019-02-11 20:48:51 21.5 27 15.8
003C6025 2019-02-11 20:18:06 21.5 28 16.2
003C6025 2019-02-11 19:47:22 21.6 27 16.2
003C6025 2019-02-11 19:16:39 21.7 28 16.7
003C6025 2019-02-11 18:45:53 21.9 28 16.4
003C6025 2019-02-11 18:15:08 21.9 28 16.8
003C6025 2019-02-11 17:44:23 22 28 15.7
003C6025 2019-02-11 17:13:37 22.1 28 16.4
003C6025 2019-02-11 16:42:50 22.2 28 15.9
003C6025 2019-02-11 16:12:04 22.2 32 0